Time,TemperatureF,DewpointF,PressureIn,WindDirection,WindDirectionDegrees,WindSpeedMPH,WindSpeedGustMPH,Humidity,HourlyPrecipIn,Conditions,Clouds,dailyrainin,SolarRadiationWatts/m^2,SoftwareType,DateUTC
2013-02-10 00:00:00,21.3,19.0,30.05,NE,53,0.0,0.0,92,0.00,,,0.00,0,weatherlink.com 1.10,2013-02-10 05:00:00,
2013-02-10 00:15:00,21.3,19.0,30.07,NE,53,0.0,0.0,92,0.00,,,0.00,0,weatherlink.com 1.10,2013-02-10 05:15:00,
2013-02-10 00:30:00,21.2,19.0,30.08,NE,53,0.0,0.0,92,0.00,,,0.00,0,weatherlink.com 1.10,2013-02-10 05:30:00,
2013-02-10 00:45:00,21.0,19.0,30.09,NE,53,0.0,0.0,92,0.00,,,0.00,0,weatherlink.com 1.10,2013-02-10 05:45:00,
2013-02-10 01:00:00,21.0,19.0,30.09,NE,53,0.0,0.0,92,0.00,,,0.00,0,weatherlink.com 1.10,2013-02-10 06:00:00,
2013-02-10 01:15:00,20.9,19.0,30.10,NE,53,0.0,0.0,92,0.00,,,0.00,0,weatherlink.com 1.10,2013-02-10 06:15:00,
2013-02-10 01:30:00,20.9,19.0,30.11,NE,53,0.0,0.0,92,0.00,,,0.00,0,weatherlink.com 1.10,2013-02-10 06:30:00,
2013-02-10 01:45:00,21.0,19.0,30.11,NE,53,0.0,0.0,92,0.00,,,0.00,0,weatherlink.com 1.10,2013-02-10 06:45:00,
2013-02-10 02:00:00,21.0,19.0,30.12,NE,53,0.0,0.0,92,0.00,,,0.00,0,weatherlink.com 1.10,2013-02-10 07:00:00,
2013-02-10 02:15:00,21.0,19.0,30.13,NE,53,0.0,0.0,92,0.00,,,0.00,0,weatherlink.com 1.10,2013-02-10 07:15:00,
2013-02-10 02:30:00,21.3,19.0,30.13,NE,53,0.0,0.0,92,0.00,,,0.00,0,weatherlink.com 1.10,2013-02-10 07:30:00,
2013-02-10 02:45:00,21.4,20.0,30.14,NE,53,0.0,0.0,92,0.00,,,0.00,0,weatherlink.com 1.10,2013-02-10 07:45:00,
2013-02-10 03:00:00,21.5,20.0,30.14,NE,53,0.0,0.0,92,0.00,,,0.00,0,weatherlink.com 1.10,2013-02-10 08:00:00,
2013-02-10 03:15:00,21.6,20.0,30.14,NE,53,0.0,0.0,92,0.00,,,0.00,0,weatherlink.com 1.10,2013-02-10 08:15:00,
2013-02-10 03:30:00,21.7,20.0,30.15,NE,53,0.0,0.0,92,0.00,,,0.00,0,weatherlink.com 1.10,2013-02-10 08:30:00,
2013-02-10 03:45:00,21.9,20.0,30.15,NE,53,0.0,0.0,92,0.00,,,0.00,0,weatherlink.com 1.10,2013-02-10 08:45:00,
2013-02-10 04:00:00,22.0,20.0,30.16,NE,53,0.0,0.0,92,0.00,,,0.00,0,weatherlink.com 1.10,2013-02-10 09:00:00,
2013-02-10 04:15:00,21.8,20.0,30.17,NE,53,0.0,0.0,92,0.00,,,0.00,0,weatherlink.com 1.10,2013-02-10 09:15:00,
2013-02-10 04:30:00,21.8,20.0,30.18,NE,53,0.0,0.0,92,0.00,,,0.00,0,weatherlink.com 1.10,2013-02-10 09:30:00,
2013-02-10 04:45:00,22.0,20.0,30.18,NE,53,0.0,0.0,92,0.00,,,0.00,0,weatherlink.com 1.10,2013-02-10 09:45:00,
2013-02-10 05:00:00,22.1,20.0,30.19,NE,53,0.0,0.0,91,0.00,,,0.00,0,weatherlink.com 1.10,2013-02-10 10:00:00,
2013-02-10 05:15:00,20.5,19.0,30.20,NE,53,0.0,0.0,92,0.00,,,0.00,0,weatherlink.com 1.10,2013-02-10 10:15:00,
2013-02-10 05:30:00,20.3,18.0,30.21,NE,53,0.0,0.0,92,0.00,,,0.00,0,weatherlink.com 1.10,2013-02-10 10:30:00,
2013-02-10 05:45:00,20.1,18.0,30.22,NE,53,0.0,0.0,92,0.00,,,0.00,0,weatherlink.com 1.10,2013-02-10 10:45:00,
2013-02-10 06:00:00,20.5,19.0,30.22,NE,53,0.0,0.0,92,0.00,,,0.00,0,weatherlink.com 1.10,2013-02-10 11:00:00,
2013-02-10 06:15:00,21.3,19.0,30.23,NE,53,0.0,0.0,92,0.00,,,0.00,0,weatherlink.com 1.10,2013-02-10 11:15:00,
2013-02-10 06:30:00,21.5,19.0,30.24,NE,53,0.0,0.0,91,0.00,,,0.00,0,weatherlink.com 1.10,2013-02-10 11:30:00,
2013-02-10 06:45:00,21.5,19.0,30.24,NE,53,0.0,0.0,91,0.00,,,0.00,0,weatherlink.com 1.10,2013-02-10 11:45:00,
2013-02-10 07:00:00,21.6,19.0,30.25,NE,53,0.0,0.0,91,0.00,,,0.00,11,weatherlink.com 1.10,2013-02-10 12:00:00,
2013-02-10 07:15:00,21.1,19.0,30.26,NE,53,0.0,0.0,92,0.00,,,0.00,18,weatherlink.com 1.10,2013-02-10 12:15:00,
2013-02-10 07:31:00,21.0,19.0,30.27,NE,53,0.0,0.0,91,0.00,,,0.00,25,weatherlink.com 1.10,2013-02-10 12:31:00,
2013-02-10 07:46:00,21.1,19.0,30.27,NE,53,0.0,0.0,90,0.00,,,0.00,42,weatherlink.com 1.10,2013-02-10 12:46:00,
2013-02-10 08:01:00,21.4,19.0,30.28,NE,53,0.0,0.0,91,0.00,,,0.00,49,weatherlink.com 1.10,2013-02-10 13:01:00,
2013-02-10 08:16:00,21.6,19.0,30.29,NE,53,0.0,0.0,91,0.00,,,0.00,146,weatherlink.com 1.10,2013-02-10 13:16:00,
2013-02-10 08:31:00,22.0,20.0,30.30,NE,53,0.0,0.0,91,0.00,,,0.00,134,weatherlink.com 1.10,2013-02-10 13:31:00,
2013-02-10 08:46:00,22.5,20.0,30.30,NE,53,0.0,0.0,91,0.00,,,0.00,179,weatherlink.com 1.10,2013-02-10 13:46:00,
2013-02-10 09:01:00,23.3,21.0,30.30,NE,53,0.0,0.0,91,0.00,,,0.00,202,weatherlink.com 1.10,2013-02-10 14:01:00,
2013-02-10 09:16:00,23.9,22.0,30.31,NE,53,0.0,0.0,91,0.00,,,0.00,264,weatherlink.com 1.10,2013-02-10 14:16:00,
2013-02-10 09:31:00,23.8,21.0,30.31,NE,53,0.0,0.0,90,0.00,,,0.00,294,weatherlink.com 1.10,2013-02-10 14:31:00,
2013-02-10 09:46:00,24.3,22.0,30.32,NE,53,0.0,0.0,90,0.00,,,0.00,325,weatherlink.com 1.10,2013-02-10 14:46:00,
2013-02-10 10:01:00,25.0,23.0,30.31,NE,53,0.0,0.0,91,0.00,,,0.00,350,weatherlink.com 1.10,2013-02-10 15:01:00,
2013-02-10 10:16:00,25.6,23.0,30.32,NE,53,0.0,0.0,91,0.00,,,0.00,381,weatherlink.com 1.10,2013-02-10 15:16:00,
2013-02-10 10:31:00,26.9,24.0,30.32,NE,53,0.0,0.0,90,0.00,,,0.00,408,weatherlink.com 1.10,2013-02-10 15:31:00,
2013-02-10 10:46:00,27.4,25.0,30.32,NE,53,0.0,0.0,89,0.01,,,0.01,432,weatherlink.com 1.10,2013-02-10 15:46:00,
2013-02-10 11:01:00,27.6,25.0,30.32,NE,53,0.0,0.0,89,0.02,,,0.02,461,weatherlink.com 1.10,2013-02-10 16:01:00,
2013-02-10 11:16:00,28.1,26.0,30.31,NE,53,0.0,0.0,90,0.04,,,0.04,515,weatherlink.com 1.10,2013-02-10 16:16:00,
2013-02-10 11:31:00,28.6,26.0,30.30,NE,52,4.0,11.0,89,0.05,,,0.05,571,weatherlink.com 1.10,2013-02-10 16:31:00,
2013-02-10 11:47:00,28.9,26.0,30.30,NE,52,3.0,10.0,90,0.05,,,0.06,615,weatherlink.com 1.10,2013-02-10 16:47:00,
2013-02-10 12:02:00,29.1,26.0,30.30,NE,52,3.0,10.0,89,0.06,,,0.08,619,weatherlink.com 1.10,2013-02-10 17:02:00,
2013-02-10 12:17:00,29.2,26.0,30.30,NE,52,6.0,10.0,89,0.05,,,0.09,622,weatherlink.com 1.10,2013-02-10 17:17:00,
2013-02-10 12:32:00,29.0,26.0,30.30,NE,52,4.0,11.0,87,0.05,,,0.10,608,weatherlink.com 1.10,2013-02-10 17:32:00,
2013-02-10 12:47:00,29.4,26.0,30.30,NE,52,1.0,9.0,85,0.06,,,0.12,603,weatherlink.com 1.10,2013-02-10 17:47:00,
2013-02-10 13:02:00,29.4,25.0,30.31,SSW,212,0.0,12.0,84,0.04,,,0.12,587,weatherlink.com 1.10,2013-02-10 18:02:00,
2013-02-10 13:17:00,29.7,25.0,30.30,NW,312,4.0,13.0,84,0.04,,,0.13,568,weatherlink.com 1.10,2013-02-10 18:17:00,
2013-02-10 13:32:00,30.1,26.0,30.30,WNW,292,2.0,7.0,86,0.04,,,0.14,550,weatherlink.com 1.10,2013-02-10 18:32:00,
2013-02-10 13:47:00,30.3,26.0,30.30,NW,306,4.0,11.0,85,0.03,,,0.15,527,weatherlink.com 1.10,2013-02-10 18:47:00,
2013-02-10 14:02:00,30.7,27.0,30.29,North,1,2.0,7.0,86,0.04,,,0.16,503,weatherlink.com 1.10,2013-02-10 19:02:00,
2013-02-10 14:17:00,30.8,27.0,30.29,North,355,1.0,8.0,84,0.04,,,0.17,478,weatherlink.com 1.10,2013-02-10 19:17:00,
2013-02-10 14:32:00,30.7,25.0,30.29,WNW,287,1.0,6.0,80,0.04,,,0.18,366,weatherlink.com 1.10,2013-02-10 19:32:00,
2013-02-10 14:47:00,30.7,26.0,30.30,West,279,0.0,6.0,81,0.04,,,0.19,128,weatherlink.com 1.10,2013-02-10 19:47:00,
2013-02-10 15:02:00,30.6,25.0,30.30,WNW,297,1.0,5.0,80,0.03,,,0.19,76,weatherlink.com 1.10,2013-02-10 20:02:00,
2013-02-10 15:17:00,31.0,26.0,30.31,WNW,289,2.0,5.0,83,0.03,,,0.20,127,weatherlink.com 1.10,2013-02-10 20:17:00,
2013-02-10 15:32:00,31.2,26.0,30.31,WSW,240,3.0,5.0,82,0.02,,,0.20,102,weatherlink.com 1.10,2013-02-10 20:32:00,
2013-02-10 15:47:00,31.3,26.0,30.31,West,276,0.0,3.0,82,0.01,,,0.20,60,weatherlink.com 1.10,2013-02-10 20:47:00,
2013-02-10 16:02:00,31.3,26.0,30.31,WNW,290,0.0,3.0,81,0.01,,,0.20,33,weatherlink.com 1.10,2013-02-10 21:02:00,
2013-02-10 16:17:00,31.0,26.0,30.32,WSW,246,0.0,2.0,82,0.00,,,0.20,35,weatherlink.com 1.10,2013-02-10 21:17:00,
2013-02-10 16:32:00,30.7,27.0,30.32,West,279,0.0,1.0,85,0.00,,,0.20,28,weatherlink.com 1.10,2013-02-10 21:32:00,
2013-02-10 16:47:00,30.3,27.0,30.32,WNW,287,0.0,0.0,88,0.00,,,0.20,14,weatherlink.com 1.10,2013-02-10 21:47:00,
2013-02-10 17:02:00,29.5,27.0,30.32,WNW,287,0.0,0.0,89,0.00,,,0.20,7,weatherlink.com 1.10,2013-02-10 22:02:00,
2013-02-10 17:17:00,28.6,26.0,30.31,WNW,287,0.0,0.0,90,0.00,,,0.20,0,weatherlink.com 1.10,2013-02-10 22:17:00,
2013-02-10 17:32:00,27.7,26.0,30.32,WNW,287,0.0,0.0,91,0.00,,,0.20,0,weatherlink.com 1.10,2013-02-10 22:32:00,
2013-02-10 17:47:00,26.7,25.0,30.33,WNW,287,0.0,0.0,91,0.00,,,0.20,0,weatherlink.com 1.10,2013-02-10 22:47:00,
2013-02-10 18:02:00,26.1,24.0,30.33,WNW,287,0.0,0.0,91,0.00,,,0.20,0,weatherlink.com 1.10,2013-02-10 23:02:00,
2013-02-10 18:17:00,25.7,24.0,30.33,WNW,287,0.0,0.0,91,0.00,,,0.20,0,weatherlink.com 1.10,2013-02-10 23:17:00,
2013-02-10 18:32:00,25.4,23.0,30.33,WNW,287,0.0,0.0,91,0.00,,,0.20,0,weatherlink.com 1.10,2013-02-10 23:32:00,
2013-02-10 18:47:00,24.5,22.0,30.33,WNW,287,0.0,0.0,91,0.00,,,0.20,0,weatherlink.com 1.10,2013-02-10 23:47:00,
2013-02-10 19:02:00,23.7,22.0,30.33,WNW,287,0.0,0.0,92,0.00,,,0.20,0,weatherlink.com 1.10,2013-02-11 00:02:00,
2013-02-10 19:17:00,23.7,22.0,30.34,WNW,287,0.0,0.0,93,0.00,,,0.20,0,weatherlink.com 1.10,2013-02-11 00:17:00,
2013-02-10 19:32:00,23.8,22.0,30.34,WNW,287,0.0,0.0,92,0.00,,,0.20,0,weatherlink.com 1.10,2013-02-11 00:32:00,
2013-02-10 19:47:00,23.1,21.0,30.33,WNW,287,0.0,0.0,92,0.00,,,0.20,0,weatherlink.com 1.10,2013-02-11 00:47:00,
2013-02-10 20:02:00,21.8,20.0,30.33,WNW,287,0.0,0.0,92,0.00,,,0.20,0,weatherlink.com 1.10,2013-02-11 01:02:00,
2013-02-10 20:17:00,21.3,20.0,30.34,WNW,287,0.0,0.0,93,0.00,,,0.20,0,weatherlink.com 1.10,2013-02-11 01:17:00,
2013-02-10 20:32:00,20.7,19.0,30.34,WNW,287,0.0,0.0,93,0.00,,,0.20,0,weatherlink.com 1.10,2013-02-11 01:32:00,
2013-02-10 20:47:00,20.5,19.0,30.34,WNW,287,0.0,1.0,93,0.00,,,0.20,0,weatherlink.com 1.10,2013-02-11 01:47:00,
2013-02-10 21:02:00,20.2,19.0,30.34,WNW,287,0.0,0.0,94,0.00,,,0.20,0,weatherlink.com 1.10,2013-02-11 02:02:00,
2013-02-10 21:17:00,20.3,19.0,30.34,WNW,287,0.0,0.0,94,0.00,,,0.20,0,weatherlink.com 1.10,2013-02-11 02:17:00,
2013-02-10 21:32:00,20.7,19.0,30.34,WNW,287,0.0,0.0,94,0.00,,,0.20,0,weatherlink.com 1.10,2013-02-11 02:32:00,
2013-02-10 21:47:00,21.3,20.0,30.34,WNW,287,0.0,0.0,95,0.00,,,0.20,0,weatherlink.com 1.10,2013-02-11 02:47:00,
2013-02-10 22:02:00,22.5,21.0,30.34,WNW,287,0.0,0.0,95,0.00,,,0.20,0,weatherlink.com 1.10,2013-02-11 03:02:00,
2013-02-10 22:17:00,23.3,22.0,30.34,WNW,287,0.0,0.0,95,0.00,,,0.20,0,weatherlink.com 1.10,2013-02-11 03:17:00,
2013-02-10 22:32:00,22.6,21.0,30.34,WNW,287,0.0,0.0,94,0.00,,,0.20,0,weatherlink.com 1.10,2013-02-11 03:32:00,
2013-02-10 22:47:00,22.9,22.0,30.33,WNW,287,0.0,0.0,95,0.00,,,0.20,0,weatherlink.com 1.10,2013-02-11 03:47:00,
2013-02-10 23:02:00,23.4,22.0,30.34,WNW,287,0.0,0.0,95,0.00,,,0.20,0,weatherlink.com 1.10,2013-02-11 04:02:00,
2013-02-10 23:17:00,23.6,22.0,30.34,WNW,287,0.0,0.0,95,0.00,,,0.20,0,weatherlink.com 1.10,2013-02-11 04:17:00,
2013-02-10 23:32:00,23.9,23.0,30.33,WNW,287,0.0,0.0,95,0.00,,,0.20,0,weatherlink.com 1.10,2013-02-11 04:32:00,
2013-02-10 23:47:00,23.4,22.0,30.33,WNW,287,0.0,0.0,95,0.00,,,0.20,0,weatherlink.com 1.10,2013-02-11 04:47:00,